Weather History for McComb, MS

Change the Weather History Date:

Friday, January 10, 2014

  Actual Average Record
Temperature  
Mean Temperature 54 °F -  
Max Temperature 64 °F 56 °F 79 °F (1974)
Min Temperature 44 °F 34 °F 7 °F (1962)
Degree Days  
Heating Degree Days 11    
Growing Degree Days 4 (Base 50)    
Moisture  
Dew Point 53 °F    
Average Humidity 94    
Maximum Humidity 100    
Minimum Humidity 78    
Precipitation  
Precipitation 0.19 in - - ()
Sea Level Pressure  
Sea Level Pressure 30.02 in    
Wind  
Wind Speed 6 mph (SSE)    
Max Wind Speed 20 mph    
Max Gust Speed 31 mph    
Visibility 4 miles    
Events Fog , Rain , Thunderstorm    
Averages and records for this station are not official NWS values.
T = Trace of Precipitation, MM = Missing Value Source: NWS Daily Summary

Daily Weather History Graph

Daily Weather History Graph

Search for Another Location

Airport:

Trip Planner

Search our weather history database for the weather conditions in past years. The results will help you decide how hot, cold, wet, or windy it might be!

Date:

Astronomy

Jan. 10, 2014 Rise Set
Actual Time 7:01 AM CST 5:17 PM CST
Civil Twilight 6:35 AM CST 5:44 PM CST
Nautical Twilight 6:05 AM CST 6:14 PM CST
Astronomical Twilight 5:35 AM CST 6:43 PM CST
Moon 1:16 PM CST (1/10) 2:15 AM CST (1/10)
Length of Visible Light 11h 09m
Length of Day
10h 16m
Waxing Gibbous, 75% of the Moon is Illuminated
Jan 10
Waxing Gibbous
Jan 15
Full
Jan 23
Last Quarter
Jan 30
New
Feb 6
First Quarter

Hourly Weather History & Observations

Time (CST) Temp. Windchill Dew Point Humidity Pressure Visibility Wind Dir Wind Speed Gust Speed Precip Events Conditions
12:53 AM 46.0 °F 44.8 °F 43.0 °F 89% 30.18 in 10.0 mi ESE 3.5 mph - N/A   Clear
1:53 AM 46.0 °F 44.8 °F 43.0 °F 89% 30.17 in 10.0 mi Variable 3.5 mph - N/A   Clear
2:53 AM 45.0 °F 43.5 °F 42.1 °F 90% 30.16 in 10.0 mi Variable 3.5 mph - N/A   Clear
3:53 AM 44.1 °F 42.5 °F 41.0 °F 89% 30.14 in 9.0 mi Variable 3.5 mph - N/A   Clear
4:17 AM 44.1 °F 41.5 °F 42.1 °F 93% 30.14 in 8.0 mi Variable 4.6 mph - N/A   Scattered Clouds
4:25 AM 44.1 °F 41.5 °F 42.1 °F 93% 30.14 in 7.0 mi SE 4.6 mph - N/A   Mostly Cloudy
4:39 AM 45.0 °F 41.8 °F 43.0 °F 93% 30.13 in 3.0 mi SE 5.8 mph - N/A   Overcast
4:44 AM 44.1 °F 41.5 °F 43.0 °F 96% 30.13 in 1.8 mi SE 4.6 mph - N/A   Overcast
4:53 AM 44.1 °F 41.5 °F 44.1 °F 100% 30.13 in 0.8 mi SE 4.6 mph - N/A   Overcast
5:09 AM 45.0 °F 43.5 °F 44.1 °F 97% 30.13 in 0.2 mi ESE 3.5 mph - N/A Fog Fog
5:53 AM 45.0 °F 43.5 °F 44.1 °F 97% 30.12 in 0.5 mi Variable 3.5 mph - N/A Fog Fog
6:35 AM 45.0 °F - 45.0 °F 100% 30.13 in 1.0 mi Calm Calm - N/A   Mist
6:53 AM 45.0 °F - 45.0 °F 100% 30.12 in 1.2 mi Calm Calm - N/A   Overcast
7:14 AM 45.0 °F - 44.1 °F 97% 30.12 in 2.0 mi Calm Calm - N/A   Overcast
7:24 AM 45.0 °F - 45.0 °F 100% 30.13 in 1.8 mi Calm Calm - N/A   Overcast
7:45 AM 46.0 °F - 45.0 °F 96% 30.13 in 0.5 mi Calm Calm - N/A Fog Fog
7:53 AM 46.0 °F 44.8 °F 45.0 °F 96% 30.13 in 0.2 mi ESE 3.5 mph - N/A Fog Fog
8:41 AM 46.9 °F - 46.9 °F 100% 30.14 in 0.5 mi ESE 3.5 mph - N/A Fog Fog
8:53 AM 48.0 °F - 46.9 °F 96% 30.14 in 0.8 mi Variable 3.5 mph - N/A   Overcast
9:00 AM 48.0 °F - 46.9 °F 96% 30.13 in 1.2 mi Variable 3.5 mph - N/A   Overcast
9:32 AM 50.0 °F - 48.9 °F 96% 30.14 in 0.8 mi SSE 5.8 mph - N/A   Overcast
9:45 AM 50.0 °F - 50.0 °F 100% 30.13 in 0.2 mi SSE 4.6 mph - N/A Fog Fog
9:53 AM 51.1 °F - 50.0 °F 96% 30.13 in 0.2 mi Variable 3.5 mph - N/A Fog Fog
10:02 AM 51.1 °F - 50.0 °F 96% 30.13 in 0.5 mi SSE 4.6 mph - N/A Fog Fog
10:24 AM 52.0 °F - 51.1 °F 97% 30.12 in 1.0 mi SE 6.9 mph - N/A   Overcast
10:53 AM 53.1 °F - 52.0 °F 96% 30.10 in 1.5 mi SE 5.8 mph - N/A   Overcast
11:27 AM 54.0 °F - 53.1 °F 97% 30.07 in 3.0 mi SSE 9.2 mph - N/A   Overcast
11:53 AM 55.0 °F - 54.0 °F 96% 30.04 in 7.0 mi SSE 6.9 mph - N/A   Overcast
12:10 PM 57.9 °F - 54.0 °F 87% 30.03 in 10.0 mi SSE 10.4 mph - N/A   Overcast
12:50 PM 60.8 °F - 55.4 °F 82% 29.99 in 10.0 mi SSE 12.7 mph - N/A   Overcast
12:53 PM 61.0 °F - 55.0 °F 81% 29.99 in 10.0 mi SSE 12.7 mph - N/A   Overcast
1:13 PM 61.0 °F - 55.0 °F 81% 29.98 in 10.0 mi SSE 11.5 mph - N/A   Overcast
1:53 PM 63.0 °F - 57.0 °F 81% 29.95 in 10.0 mi SE 10.4 mph - N/A   Overcast
2:22 PM 64.0 °F - 57.0 °F 78% 29.95 in 10.0 mi SSE 12.7 mph - N/A   Overcast
2:53 PM 64.0 °F - 57.9 °F 80% 29.95 in 10.0 mi South 10.4 mph - N/A   Overcast
3:53 PM 64.0 °F - 57.9 °F 80% 29.93 in 10.0 mi SSE 10.4 mph - N/A   Overcast
4:53 PM 63.0 °F - 59.0 °F 87% 29.93 in 10.0 mi South 10.4 mph - N/A   Overcast
5:03 PM 63.0 °F - 59.0 °F 87% 29.93 in 10.0 mi SSE 9.2 mph - N/A   Overcast
5:53 PM 62.1 °F - 60.1 °F 93% 29.92 in 3.0 mi SSE 8.1 mph - 0.00 in Rain Light Rain
6:53 PM 61.0 °F - 60.1 °F 97% 29.91 in 4.0 mi SSE 12.7 mph - 0.01 in   Overcast
7:07 PM 61.0 °F - 60.1 °F 97% 29.91 in 2.0 mi SSE 12.7 mph - N/A   Overcast
7:27 PM 61.0 °F - 60.1 °F 97% 29.92 in 4.0 mi SSE 11.5 mph - N/A   Overcast
7:53 PM 61.0 °F - 60.1 °F 97% 29.91 in 2.5 mi SSE 10.4 mph - 0.00 in Rain Light Rain
8:04 PM 62.1 °F - 61.0 °F 96% 29.91 in 3.0 mi SSE 10.4 mph - 0.01 in Rain Light Rain
8:28 PM 62.1 °F - 61.0 °F 96% 29.91 in 1.8 mi South 12.7 mph - 0.01 in   Overcast
8:42 PM 62.1 °F - 61.0 °F 96% 29.90 in 0.8 mi South 10.4 mph - 0.01 in Rain Light Rain
8:53 PM 62.1 °F - 61.0 °F 96% 29.90 in 0.8 mi South 11.5 mph - 0.01 in   Mist
9:06 PM 62.1 °F - 62.1 °F 100% 29.90 in 1.0 mi South 15.0 mph - N/A   Mist
9:41 PM 63.0 °F - 62.1 °F 97% 29.88 in 3.0 mi South 10.4 mph - N/A   Overcast
9:53 PM 63.0 °F - 62.1 °F 97% 29.88 in 2.0 mi South 13.8 mph - 0.02 in Rain Heavy Rain
10:05 PM 63.0 °F - 62.1 °F 97% 29.88 in 5.0 mi South 15.0 mph - 0.01 in Rain Light Rain
10:53 PM 64.0 °F - 63.0 °F 96% 29.84 in 5.0 mi South 12.7 mph 20.7 mph 0.02 in   Overcast
11:13 PM 64.9 °F - 64.0 °F 97% 29.84 in 9.0 mi South 13.8 mph 24.2 mph N/A Thunderstorm Overcast
11:36 PM 64.9 °F - 64.0 °F 97% 29.84 in 2.5 mi South 19.6 mph 31.1 mph 0.05 in Rain , Thunderstorm Heavy Thunderstorms and Rain
11:44 PM 64.9 °F - 64.0 °F 97% 29.84 in 3.0 mi South 17.3 mph 26.5 mph 0.09 in Rain , Thunderstorm Thunderstorms and Rain
11:53 PM 64.9 °F - 64.0 °F 97% 29.83 in 4.0 mi South 16.1 mph 24.2 mph 0.13 in Rain , Thunderstorm Light Thunderstorms and Rain